CW7710 Weather Reports


Display with metric or nautical units.
time (UTC)temp
F
wind
direction
speed
MPH
gust
MPH
rain 1hr
in
rain 24hr
in
rain mn
in
humidity
%
barometer
mb
20260505101327 32 277 6.0 0.0 0.00 0.00 0.00 71 1016.9
20260505100334 32 284 8.0 0.0 0.00 0.00 0.00 70 1016.8
20260505095322 33 269 7.0 0.0 0.00 0.00 0.00 69 1016.5
20260505094330 33 275 6.0 0.0 0.00 0.00 0.00 69 1016.6
20260505093334 33 277 4.0 0.0 0.00 0.00 0.00 69 1016.6
20260505092359 33 255 3.0 0.0 0.00 0.00 0.00 68 1016.9
20260505091326 32 275 3.0 0.0 0.00 0.00 0.00 67 1016.9
20260505090330 33 214 4.0 0.0 0.00 0.00 0.00 66 1016.7
20260505085335 34 203 3.0 0.0 0.00 0.00 0.00 65 1016.4
20260505084342 34 194 5.0 0.0 0.00 0.00 0.00 64 1016.5
20260505083350 35 186 4.0 0.0 0.00 0.00 0.00 62 1017.0
20260505082345 36 225 3.0 0.0 0.00 0.00 0.00 59 1017.2
20260505081333 37 293 2.0 0.0 0.00 0.00 0.00 55 1016.9
20260505080337 40 307 3.0 0.0 0.00 0.00 0.00 52 1016.6
20260505075342 42 312 3.0 0.0 0.00 0.00 0.00 50 1017.1
20260505074326 42 283 3.0 0.0 0.00 0.00 0.00 51 1017.0
20260505073335 43 314 3.0 0.0 0.00 0.00 0.00 51 1017.0
20260505072338 42 309 2.0 0.0 0.00 0.00 0.00 54 1017.0
20260505071341 39 304 4.0 0.0 0.00 0.00 0.00 59 1016.6
20260505070326 39 221 5.0 0.0 0.00 0.00 0.00 57 1016.7
20260505065329 40 240 3.0 0.0 0.00 0.00 0.00 54 1016.4
20260505064337 42 276 2.0 0.0 0.00 0.00 0.00 52 1016.9
20260505063402 44 317 3.0 0.0 0.00 0.00 0.00 50 1016.6
20260505062344 44 31 5.0 0.0 0.00 0.00 0.00 50 1016.6
20260505061328 45 19 9.0 0.0 0.00 0.00 0.00 50 1017.1
20260505060336 45 9 8.0 0.0 0.00 0.00 0.00 50 1017.0
20260505055343 45 12 6.0 0.0 0.00 0.00 0.00 50 1016.6
20260505054328 45 31 5.0 0.0 0.00 0.00 0.00 51 1016.6
20260505053333 45 58 2.0 0.0 0.00 0.00 0.00 52 1016.5
20260505052341 45 146 2.0 0.0 0.00 0.00 0.00 53 1016.5
20260505051326 46 218 2.0 0.0 0.00 0.00 0.00 52 1016.4
20260505050349 46 286 1.0 0.0 0.00 0.00 0.00 52 1016.6
20260505041332 47 6 4.0 0.0 0.00 0.00 0.00 50 1016.3
20260505035403 48 360 2.0 0.0 0.00 0.00 0.00 51 1016.2
20260505034326 48 31 5.0 0.0 0.00 0.00 0.00 53 1016.1
20260505033333 49 28 3.0 0.0 0.00 0.00 0.00 52 1015.9
20260505032338 49 13 5.0 0.0 0.00 0.00 0.00 52 1015.7
20260505031326 50 1 9.0 0.0 0.00 0.00 0.00 52 1016.0
20260505030353 50 344 12.0 0.0 0.00 0.00 0.00 51 1015.7
20260505025337 51 359 13.0 0.0 0.00 0.00 0.00 50 1015.6
20260505024339 51 13 9.0 0.0 0.00 0.00 0.00 49 1015.5
20260505023344 51 18 3.0 0.0 0.00 0.00 0.00 50 1015.2
20260505022332 51 68 9.0 0.0 0.00 0.00 0.00 50 1015.1
20260505021356 51 65 11.0 0.0 0.00 0.00 0.00 49 1015.2
20260505020339 51 53 10.0 0.0 0.00 0.00 0.00 49 1015.1
20260505015343 52 57 11.0 0.0 0.00 0.00 0.00 49 1014.5
20260505014331 52 42 15.0 0.0 0.00 0.00 0.00 48 1014.5
20260505013335 52 61 15.0 0.0 0.00 0.00 0.00 48 1014.4
20260505012339 52 61 16.0 0.0 0.00 0.00 0.00 47 1014.9
20260505011343 53 67 15.0 0.0 0.00 0.00 0.00 45 1014.9
20260505010331 54 65 14.0 0.0 0.00 0.00 0.00 44 1014.9
20260505005335 55 352 13.0 0.0 0.00 0.00 0.00 43 1014.4
20260505004340 55 3 15.0 0.0 0.00 0.00 0.00 42 1014.7
20260505003344 55 346 13.0 0.0 0.00 0.00 0.00 41 1014.6
20260505002332 55 5 15.0 0.0 0.00 0.00 0.00 41 1014.6
20260505001336 56 359 15.0 0.0 0.00 0.00 0.00 41 1014.3
20260505000340 56 24 16.0 0.0 0.00 0.00 0.00 41 1014.1
20260504235343 56 28 16.0 0.0 0.00 0.00 0.00 41 1014.6
20260504234332 56 356 18.0 0.0 0.00 0.00 0.00 40 1014.6
20260504233336 56 16 17.0 0.0 0.00 0.00 0.00 39 1014.5
20260504232340 57 17 16.0 0.0 0.00 0.00 0.00 39 1014.3
20260504231344 57 9 17.0 0.0 0.00 0.00 0.00 39 1014.2
20260504230331 56 352 16.0 0.0 0.00 0.00 0.00 39 1014.2
20260504225355 57 339 16.0 0.0 0.00 0.00 0.00 39 1013.9
20260504224357 57 354 13.0 0.0 0.00 0.00 0.00 40 1013.8
20260504223340 57 4 16.0 0.0 0.00 0.00 0.00 40 1013.7
20260504222324 57 348 15.0 0.0 0.00 0.00 0.00 40 1013.7
20260504221335 57 5 13.0 0.0 0.00 0.00 0.00 40 1013.7
20260504220342 57 352 16.0 0.0 0.00 0.00 0.00 40 1014.7
20260504215326 58 7 14.0 0.0 0.00 0.00 0.00 39 1013.3
20260504214330 60 16 14.0 0.0 0.00 0.00 0.00 38 1013.6
20260504213337 59 4 11.0 0.0 0.00 0.00 0.00 40 1013.6
20260504212321 59 1 14.0 0.0 0.00 0.00 0.00 40 1013.8
20260504211329 59 30 16.0 0.0 0.00 0.00 0.00 39 1013.8
20260504210337 59 5 15.0 0.0 0.00 0.00 0.00 41 1013.8
20260504205405 58 39 17.0 0.0 0.00 0.00 0.00 40 1014.5
20260504204329 58 9 16.0 0.0 0.00 0.00 0.00 41 1014.5
20260504203332 57 354 18.0 0.0 0.00 0.00 0.00 43 1014.5
20260504202336 56 8 18.0 0.0 0.00 0.00 0.00 43 1013.9
20260504201339 56 359 19.0 0.0 0.00 0.00 0.00 42 1014.4
20260504200327 58 3 17.0 0.0 0.00 0.00 0.00 42 1014.4
20260504195330 57 14 17.0 0.0 0.00 0.00 0.00 42 1014.6
20260504194334 58 28 14.0 0.0 0.00 0.00 0.00 41 1014.5
20260504193342 58 29 12.0 0.0 0.00 0.00 0.00 41 1014.6
20260504192330 58 34 13.0 0.0 0.00 0.00 0.00 42 1014.6
20260504191334 59 35 10.0 0.0 0.00 0.00 0.00 40 1014.3
20260504190341 59 349 8.0 0.0 0.00 0.00 0.00 42 1014.2
20260504185345 58 21 9.0 0.0 0.00 0.00 0.00 42 1014.0
20260504184333 57 346 9.0 0.0 0.00 0.00 0.00 42 1014.0
20260504183338 58 32 8.0 0.0 0.00 0.00 0.00 43 1014.1
20260504182345 57 42 9.0 0.0 0.00 0.00 0.00 43 1014.1
20260504181328 57 345 6.0 0.0 0.00 0.00 0.00 44 1014.1
20260504180336 57 340 7.0 0.0 0.00 0.00 0.00 43 1013.4
20260504175344 57 35 9.0 0.0 0.00 0.00 0.00 42 1014.4
20260504174328 57 357 8.0 0.0 0.00 0.00 0.00 43 1014.4
20260504173333 57 332 10.0 0.0 0.00 0.00 0.00 44 1014.5
20260504172341 57 30 8.0 0.0 0.00 0.00 0.00 44 1014.5
20260504171325 56 23 6.0 0.0 0.00 0.00 0.00 45 1014.7
20260504170328 56 332 9.0 0.0 0.00 0.00 0.00 46 1014.8
20260504160340 54 12 12.0 0.0 0.00 0.00 0.00 47 1015.4
20260504150328 53 107 4.0 0.0 0.00 0.00 0.00 47 1015.6
20260504140340 51 86 10.0 0.0 0.00 0.00 0.00 50 1013.2
20260504130334 46 311 12.0 0.0 0.00 0.00 0.00 58 1015.1
20260504110348 50 18 20.0 0.0 0.00 0.00 0.00 48 1013.1